Theta_e
299 300 301 301 303 305 304 302 301 301 303 304 305 306 307 307 309 306 304 301 302 301 304 310 314 315 316 316 316 317 318 317 316 316 317 319 318 319 319 317 318 318 319 335 341
299 300 301 302 304 303 303 303 302 302 303 304 305 306 306 306 313 307 303 301 302 301 307 308 312 315 315 316 317 316 316 316 317 317 316 317 317 317 317 316 316 317 319 324 336
299 300 301 303 304 304 305 305 306 305 305 305 305 305 305 305 315 306 302 302 302 304 306 306 309 314 314 314 315 316 317 316 317 316 316 316 316 316 315 315 316 315 317 319 329
299 300 301 303 304 305 305 305 304 304 304 304 304 306 306 309 312 305 302 303 303 305 307 308 310 313 314 315 315 314 314 315 315 315 315 314 315 315 315 315 316 317 317 317 318
299 300 301 303 304 304 304 302 303 303 303 304 305 304 308 312 306 304 303 303 305 305 307 308 308 310 311 313 313 314 314 315 315 315 315 314 314 314 314 315 315 315 316 317 317
299 299 299 301 304 302 304 302 306 305 303 304 306 306 310 306 303 303 303 303 305 305 307 307 309 309 309 310 310 312 312 312 313 313 314 313 314 314 315 315 315 315 315 316 317
298 299 299 300 301 302 302 302 303 304 306 306 306 310 306 303 303 303 303 303 305 306 307 308 308 309 310 309 310 310 309 309 310 311 312 313 313 313 315 315 315 315 316 316 317
298 298 299 299 301 302 302 301 301 306 304 306 306 309 304 303 303 303 303 304 304 305 306 309 309 309 309 310 310 311 310 310 311 311 312 312 312 313 315 315 316 316 316 316 316
298 298 298 298 299 302 304 303 303 302 302 304 305 309 305 303 303 303 302 304 305 306 307 307 309 312 312 311 310 307 306 306 306 308 309 312 312 314 314 315 315 315 315 316 316
298 298 298 299 300 302 305 304 305 305 306 306 305 307 304 303 303 303 302 304 305 307 307 309 310 312 311 305 303 305 306 307 307 307 308 308 309 311 313 314 314 314 315 316 316
298 298 298 299 306 304 303 305 310 309 305 304 304 303 303 303 303 303 302 305 306 307 305 306 309 307 305 305 305 305 307 307 305 305 306 308 309 309 311 312 313 313 314 315 315
298 298 298 300 308 308 305 313 309 309 305 304 304 304 304 303 303 303 303 303 305 304 304 305 305 303 303 303 304 304 305 303 303 304 306 308 309 310 311 311 312 312 313 314 315
297 298 299 299 305 310 309 308 307 311 309 304 304 303 304 304 303 303 303 303 304 304 303 303 303 302 302 302 304 303 302 301 301 302 303 305 306 308 310 311 312 313 314 314 314
298 300 303 302 305 308 309 309 309 312 315 306 304 303 304 304 304 303 303 303 304 302 302 304 303 302 301 302 301 300 301 301 302 303 303 305 306 307 308 310 313 311 312 312 313
298 302 303 306 307 308 308 310 311 314 327 305 304 304 305 304 302 303 303 303 303 302 302 303 302 302 301 301 300 299 301 301 301 303 304 305 305 308 310 311 309 308 308 308 309
298 302 303 306 306 306 310 310 313 325 313 306 304 304 304 304 303 303 304 304 302 301 304 301 303 301 301 301 299 300 301 300 302 304 305 305 306 307 308 306 306 305 305 305 305
298 303 303 305 306 304 310 313 322 323 306 304 303 304 304 303 303 302 303 303 300 299 299 301 300 302 301 298 299 299 299 301 302 304 308 309 308 305 304 303 302 303 303 302 303
299 305 304 306 307 306 309 315 319 306 304 303 303 304 304 303 302 302 302 302 301 299 298 296 298 299 298 298 299 299 299 301 304 303 302 303 311 302 300 300 300 300 301 301 300
305 307 304 303 308 310 315 317 306 303 301 302 304 303 303 303 301 301 302 301 300 298 296 296 296 296 296 298 298 299 300 300 302 301 304 305 300 302 298 298 299 299 299 301 300
308 308 304 303 306 313 309 307 303 301 301 302 302 302 303 301 300 301 301 301 299 298 296 295 296 296 296 296 299 299 300 304 302 305 308 305 301 300 298 297 297 298 298 300 299
310 311 304 306 309 309 312 304 302 301 300 300 302 301 301 300 300 300 300 299 297 296 295 294 295 295 295 297 298 299 301 301 300 300 304 305 299 299 297 298 297 297 296 298 298
309 310 304 307 310 307 306 302 299 301 300 301 301 300 300 299 299 300 299 298 296 295 294 292 293 296 295 298 295 296 302 299 300 298 300 304 297 295 296 296 295 296 296 296 297
308 308 304 307 309 313 304 302 299 300 299 300 301 299 299 299 299 299 298 296 296 295 293 293 292 291 291 292 294 299 297 296 298 299 297 296 296 294 294 294 294 294 294 295 296
310 308 308 307 306 306 305 302 300 299 300 299 299 299 298 298 298 297 296 296 296 295 294 293 291 290 290 291 292 298 295 294 296 295 297 295 293 293 295 293 292 293 293 294 294
306 308 304 307 310 304 303 301 300 299 299 299 299 298 297 297 295 295 295 295 294 293 291 291 289 289 290 290 295 298 294 293 294 294 295 294 293 292 294 293 292 292 292 292 293
308 308 304 304 303 304 302 301 299 298 298 298 297 297 297 296 294 294 295 294 292 291 291 291 290 291 292 295 294 293 296 292 292 293 293 292 292 292 292 293 291 291 291 291 292
303 303 306 301 303 303 300 299 299 298 298 297 296 296 296 294 294 295 295 294 292 291 291 291 291 292 292 296 294 292 294 295 294 293 293 291 292 292 291 292 291 291 291 291 291
Wind_Speed
19 17 17 18 20 17 13 10 5 3 5 10 13 9 7 11 10 18 16 18 20 24 22 23 17 11 12 13 16 17 14 16 22 23 22 21 20 8 6 4 9 13 13 9 17
20 19 19 21 19 15 13 11 7 5 5 11 11 4 8 16 9 21 22 27 29 18 16 18 15 15 9 14 13 16 14 23 20 21 21 23 20 17 18 10 11 12 14 9 18
21 18 20 20 15 14 13 11 9 9 3 11 13 8 11 13 8 16 29 29 27 18 16 18 16 14 15 15 17 18 19 20 23 23 24 25 23 17 17 18 16 15 17 16 12
21 17 19 18 13 13 13 11 10 8 7 7 9 17 14 8 3 16 29 28 25 17 15 14 11 13 15 16 17 20 23 22 24 23 25 24 24 24 21 18 18 19 17 18 17
20 18 18 17 12 12 10 12 13 13 10 7 5 4 8 1 9 20 26 25 17 17 14 13 13 13 14 15 17 19 20 21 23 23 23 23 25 24 23 21 19 20 20 19 17
20 17 17 16 10 9 6 8 10 11 8 7 7 5 4 7 12 20 26 26 16 18 13 14 11 13 13 13 14 16 19 21 23 26 25 26 26 22 27 19 21 22 21 20 18
21 19 15 13 13 5 5 2 5 8 5 3 5 6 11 8 15 20 26 25 15 16 14 13 12 10 9 15 13 14 19 20 21 23 25 24 26 27 28 21 23 23 20 18 18
20 18 12 13 11 5 3 8 7 4 3 2 5 12 4 7 15 21 28 22 15 16 10 11 10 11 14 11 16 19 20 16 17 22 22 24 26 27 25 22 24 25 23 22 18
20 17 13 12 8 6 6 1 5 2 7 8 7 7 4 12 20 23 28 24 17 16 4 9 6 11 14 15 12 15 16 23 26 26 30 29 29 18 20 17 17 16 11 12 16
21 19 16 7 14 1 9 7 4 11 8 6 14 4 15 16 18 24 31 23 16 13 11 11 7 13 5 11 11 17 17 19 22 23 26 29 28 25 22 17 15 17 19 15 12
22 21 20 5 11 1 7 11 6 3 15 11 7 7 12 19 13 23 34 22 13 10 10 13 11 9 13 11 13 19 18 18 21 22 26 25 25 24 23 22 21 18 21 20 16
22 22 17 4 11 4 7 7 7 6 5 7 6 8 13 15 8 20 30 13 12 12 15 13 4 9 11 13 16 19 16 19 22 21 21 23 26 24 22 21 20 20 21 22 21
22 20 15 4 6 7 11 8 5 7 5 5 6 9 15 15 8 18 22 15 12 14 15 13 7 10 12 14 14 15 16 19 23 24 25 22 25 20 25 24 22 23 23 22 20
23 21 16 1 2 5 7 9 4 6 4 5 10 8 15 17 1 19 13 14 11 13 15 8 13 12 13 13 15 15 21 23 22 21 19 19 17 21 20 19 18 25 24 24 26
23 22 14 17 7 10 8 7 5 3 2 7 7 7 13 17 8 19 14 11 15 19 13 14 20 17 13 8 18 21 22 23 27 25 23 25 13 9 27 23 25 24 25 24 23
12 22 22 8 10 8 7 6 4 3 4 4 5 15 13 16 11 17 11 14 7 21 11 23 23 4 4 12 18 26 22 27 25 20 18 24 19 16 12 18 25 25 25 26 25
7 17 16 10 7 11 7 4 1 5 10 10 12 15 9 15 12 18 18 14 14 13 20 20 17 15 16 29 22 22 19 12 15 11 9 13 10 11 19 23 23 25 26 26 25
3 7 16 14 11 8 7 3 8 8 8 12 13 12 9 18 12 20 18 10 15 17 17 16 22 22 32 26 28 22 19 9 14 14 18 19 5 7 19 22 23 25 25 26 27
3 4 15 21 14 9 5 6 5 8 10 11 15 7 10 16 12 15 14 11 11 17 16 15 18 33 31 27 22 16 16 17 16 19 15 1 9 9 25 26 27 28 28 28 30
5 3 20 22 19 7 5 4 5 8 9 10 9 8 14 17 13 16 10 12 12 17 21 23 27 28 28 26 19 19 10 9 4 5 5 7 9 11 25 27 26 29 29 27 29
3 1 23 22 11 6 4 5 5 8 9 9 8 9 13 16 16 14 11 12 21 20 20 23 19 28 20 17 15 15 8 6 10 8 6 5 6 14 20 21 24 24 27 26 29
7 4 22 17 6 4 7 5 4 7 8 7 5 9 10 16 10 8 13 16 20 19 17 15 18 15 28 12 17 15 9 10 5 13 10 2 8 17 19 19 23 25 26 25 26
3 5 15 12 4 4 7 7 9 9 9 9 6 8 12 11 7 11 14 17 20 14 14 13 10 16 23 16 19 10 15 17 5 5 18 8 7 17 19 19 23 23 23 23 25
3 4 5 7 8 6 4 7 6 4 3 8 3 8 12 12 12 8 17 16 17 14 14 14 12 14 12 17 17 7 16 20 12 8 7 13 17 22 22 21 24 24 25 25 25
4 3 2 2 5 9 9 5 8 8 6 7 5 12 13 9 12 11 15 11 14 15 18 14 15 14 15 13 13 12 15 21 19 12 9 12 16 18 17 16 18 19 23 26 26
3 3 4 4 2 6 4 6 9 10 6 8 9 13 12 9 10 14 14 13 11 17 17 15 12 13 9 15 11 22 17 20 18 14 11 14 12 15 17 13 17 19 20 21 24
11 5 1 2 6 5 5 4 7 8 3 6 9 11 9 12 12 12 11 11 8 13 15 13 11 10 7 5 3 18 16 17 13 13 11 12 9 13 17 14 14 17 18 19 21
Wind_Direction
17 11 8 359 352 355 9 13 32 58 132 153 155 128 36 357 15 40 29 342 334 333 325 309 247 247 233 252 248 262 256 256 262 268 272 275 292 327 94 314 294 296 295 114 119
14 10 7 1 5 19 22 26 37 53 143 174 176 168 356 342 330 43 359 353 346 339 326 322 312 315 264 250 238 236 247 255 263 272 289 297 308 309 320 298 276 272 257 217 148
13 14 9 9 22 25 23 27 41 62 75 203 215 233 302 322 278 16 350 349 340 330 308 300 284 276 272 273 262 246 246 257 270 285 299 302 301 302 297 284 275 261 281 288 177
14 15 12 14 24 26 31 54 64 55 51 63 216 236 266 298 22 353 346 343 334 329 311 303 287 275 271 270 268 263 261 265 273 280 284 287 294 287 285 275 284 291 291 290 296
15 15 16 20 29 28 47 84 73 62 66 58 74 209 279 188 5 339 340 340 332 337 322 323 307 298 282 295 302 283 284 287 287 286 282 279 274 280 272 278 273 273 276 275 278
15 13 15 18 24 29 59 112 76 65 61 59 38 322 260 66 345 351 345 340 335 330 320 307 299 306 301 288 285 294 297 293 293 293 294 289 284 279 262 263 262 254 253 256 258
14 11 11 15 15 43 30 173 329 329 317 317 342 336 73 23 343 339 345 335 324 327 310 310 302 284 298 302 289 312 298 286 282 281 279 275 270 258 266 269 266 265 258 239 238
10 9 4 10 11 355 89 82 26 70 46 45 319 310 60 7 350 351 349 340 331 315 309 306 308 278 269 273 277 264 268 272 298 308 279 252 258 261 265 262 254 244 239 236 234
7 6 0 4 1 7 189 118 98 159 327 324 296 219 38 343 358 351 351 333 322 309 241 275 265 258 270 238 279 304 331 318 309 316 309 306 311 284 285 282 275 304 289 268 223
5 2 356 324 359 241 172 165 6 10 251 265 11 179 33 348 338 352 349 331 314 295 285 240 237 252 239 360 315 316 304 302 302 316 310 301 296 301 304 290 291 299 300 283 283
6 2 359 16 21 140 186 280 239 153 40 61 40 47 343 350 341 4 351 328 340 317 344 302 287 10 354 338 302 290 293 304 313 313 305 298 294 288 288 291 291 287 286 289 276
5 2 5 32 49 48 222 296 28 344 84 73 45 22 356 345 357 9 356 359 345 338 348 321 75 6 330 306 300 295 312 310 311 304 306 311 304 292 286 276 276 273 270 277 283
6 3 7 26 46 58 55 28 360 352 238 99 61 24 351 348 357 5 2 347 352 344 342 303 30 338 322 307 333 322 314 314 307 305 290 283 278 273 274 277 270 272 276 276 270
18 15 24 3 19 358 48 359 357 352 236 38 21 32 346 344 199 6 11 352 320 347 329 291 347 320 312 313 4 313 322 308 301 301 287 291 299 290 286 274 10 16 14 8 6
17 25 23 41 0 41 346 345 339 276 267 25 11 323 339 26 297 0 349 8 347 335 302 290 336 314 297 356 343 307 311 305 294 280 275 268 259 335 26 3 3 2 1 360 0
4 24 25 34 64 3 339 330 293 249 44 26 31 343 351 15 10 355 345 44 41 332 3 332 294 241 328 328 330 316 310 300 282 271 255 260 250 43 16 359 354 358 1 1 358
14 34 23 22 354 340 331 260 264 53 355 355 339 335 349 5 3 2 349 35 26 350 346 331 324 340 41 339 325 323 306 304 299 303 311 9 46 37 16 6 4 360 358 1 0
52 35 20 29 353 341 302 219 61 11 10 340 328 328 19 13 355 356 343 17 28 11 332 353 321 359 337 317 303 289 288 290 300 300 308 316 77 38 27 9 12 5 359 6 0
13 24 9 351 353 333 287 53 25 6 347 333 321 359 353 3 345 347 352 31 15 22 1 322 304 309 305 309 315 298 288 314 297 285 268 137 6 17 10 14 6 8 2 6 5
327 252 11 342 339 302 51 86 78 14 339 333 6 6 345 357 349 350 356 10 14 5 353 317 309 309 332 318 331 320 304 299 285 291 319 83 61 18 3 11 2 6 1 360 5
303 202 357 356 338 51 71 74 67 44 1 4 356 337 345 354 333 340 352 353 13 350 345 340 331 318 315 359 10 344 332 282 310 279 297 45 47 13 9 12 0 4 0 356 2
8 52 345 355 50 44 55 35 316 7 12 8 9 348 358 335 328 351 346 11 0 342 354 348 321 334 320 55 2 350 327 20 357 331 342 250 65 14 13 20 6 5 360 355 0
69 45 358 54 73 61 99 94 55 10 25 8 356 356 350 336 327 341 357 3 344 16 0 334 336 335 332 337 349 20 18 27 6 42 34 43 26 2 10 21 11 6 356 357 358
358 33 18 13 43 48 70 44 47 66 34 350 331 360 347 332 354 327 357 347 7 22 342 338 331 333 315 314 324 359 36 46 49 42 47 35 15 1 358 22 7 2 359 359 357
78 52 325 22 32 53 51 32 33 13 357 34 346 3 341 335 341 5 344 346 1 357 352 351 329 333 311 304 17 45 57 60 54 51 38 33 34 3 3 16 5 357 1 1 355
77 15 69 73 11 58 19 35 15 358 13 8 350 346 326 7 341 320 332 339 357 348 352 353 342 336 39 85 67 38 32 64 56 38 45 36 36 9 360 12 7 1 1 359 352
20 354 320 254 49 48 33 43 11 358 116 13 351 334 349 344 314 298 293 292 338 341 352 347 339 342 3 99 272 35 19 39 37 55 50 34 16 7 357 6 8 353 356 1 349